Hourly Weather Roundup
Issued by NWS Central Illinois

Home | Current Version | Previous Version | Text Only | Print | Product List | Glossary On
Versions: 1 2 3 4 5 6 7 8 9 10 11 12 13 14 15 16 17 18 19 20 21 22 23 24 25 26 27 28 29 30 31 32 33 34 35 36 37 38 39 40 41 42 43 44 45 46 47 48 49 50
000
NZUS43 KILX 230910
HWRILX

Area Weather Roundup
National Weather Service Lincoln IL
300 AM CST FRI FEB 23 2018

NOTE:  "FAIR" indicates few or no clouds below 12,000 feet, with
       no sigificant weather and/or obstructions to visibility.


CITY           SKY/WX    TMP DP  RH WIND       PRES   REMARKS
Bloomington    LGT RAIN  43  43 100 SE13      30.13F VSB 1/4
Champaign      FOG       44  44 100 E9        30.13F VSB 1/2
Danville       CLOUDY    43  43  99 SE6       30.15F FOG
Decatur        LGT RAIN  45  45 100 SE10      30.12F FOG
Effingham      CLOUDY    48  48 100 SE8       30.15F FOG
Flora          CLOUDY    51  50  97 S12       30.14F
Galesburg      DRIZZLE   41  41 100 SE7       30.12S
Jacksonville   DRIZZLE   43  42  97 SW7       30.17R
Lacon          RAIN      41  41 100 SE16      30.11F WCI  33
Lawrenceville  LGT RAIN  50  50 100 SE12      30.16F
Litchfield     CLOUDY    46  46 100 S10       30.13S FOG
$$


CITY           SKY/WX    TMP DP  RH WIND       PRES   REMARKS
Lincoln        HVY RAIN  45  45 100 SE6       30.12F
Macomb         RAIN     N/A N/A N/A S8        30.15F
Mattoon        LGT RAIN  46  46 100 S12       30.12F
Mt Carmel AP   LGT RAIN  50  49  97 SE9       30.14F
Olney-Noble AP CLOUDY    50  48  92 SE12      30.14F
Paris AP       CLOUDY    45  45 100 SE9       30.15F FOG
Peoria         RAIN      43  43 100 S5        30.14F FOG
Pontiac        FOG       42  42  98 SE13      30.14F VSB 3/4
Rantoul        FOG       45  45  99 SE10      30.15F VSB 1/2
Robinson       LGT RAIN  48  48 100 SE13G20   30.16F
Springfield    LGT RAIN  47  45  93 S10       30.12F FOG
Taylorville    CLOUDY    46  46 100 S7        30.12F FOG
$$

...REGIONAL REPORTS...


CITY           SKY/WX    TMP DP  RH WIND       PRES   REMARKS
Chicago O`Hare CLOUDY    39  37  92 SE9       30.14F FOG     WCI  33
Kankakee       FOG       40  39  97 SE14      30.17F VSB 1/2 WCI  32
Moline         LGT RAIN  40  40 100 SE5       30.08F FOG
Mount Sterling CLOUDY    39  39 100 S5        30.13F FOG
Mount Vernon   CLOUDY    50  49  96 SE5       30.13F
Pittsfield     CLOUDY    41  41 100 SW3       30.16F
Quincy         CLOUDY    38  38 100 SW7       30.14S FOG     WCI  33
Rockford       LGT RAIN  38  37  97 SE9       30.12F VSB 1/2 WCI  31
$$


CITY           SKY/WX    TMP DP  RH WIND       PRES   REMARKS
Burlington     LGT RAIN  39  39 100 SW15      30.13R FOG     WCI  31
Cedar Rapids   LGT RAIN  36 N/A N/A SW6       30.09F WCI  31
Des Moines     CLOUDY    33  31  92 W10       30.13S WCI  25
Kirksville     CLOUDY    35  35 100 W5        30.14F WCI  31
Ottumwa        CLOUDY    34  34 100 W5        30.11F WCI  30
St Louis       LGT RAIN  46  46 100 W12       30.18R FOG
$$


CITY           SKY/WX    TMP DP  RH WIND       PRES   REMARKS
Terre Haute    RAIN      47  47 100 SE8       30.16F FOG
Evansville     HVY RAIN  50  50 100 E7        30.18F FOG
Indianapolis   LGT RAIN  45  45 100 VRB3      30.19F FOG
Lafayette      CLOUDY    43  43 100 E7        30.18F FOG
Madison        CLOUDY    34  34 100 S12       30.10F FOG     WCI  25
Milwaukee      DRZL/FOG  37  36  96 SE15G26   30.16F VSB 3/4 WCI  28
$$






USA.gov is the U.S. government's official web portal to all federal, state and local government web resources and services.